Regional Weather Roundup
Issued by NWS Wakefield, VA

Home | Current Version | Previous Version | Graphics & Text | Print | Product List | Glossary On
Versions: 1 2 3 4 5 6 7 8 9 10 11 12 13 14 15 16 17 18 19 20 21 22 23 24 25 26 27 28 29 30 31 32 33 34 35 36 37 38 39 40 41 42 43 44 45 46 47 48 49 50
862
ASUS41 KAKQ 271415
RWRAKQ

REGIONAL WEATHER ROUNDUP
NATIONAL WEATHER SERVICE WAKEFIELD VA
1000 AM EDT SAT AUG 27 2016

Note: "fair" indicates few or no clouds below 12,000 feet with no
significant weather and/or obstructions to visibility. * = Denotes
station may not report precipitation (e.g., rain,snow,etc.),
thunder or fog.

VAZ042-051-052>054-056-271500-
NORTHERN VIRGINIA

CITY           SKY/WX    TMP DP  RH WIND       PRES   REMARKS
WASH NATIONAL  MOSUNNY   85  68  56 E9        30.18R
DULLES         MOSUNNY   84  66  54 E8        30.18S
FORT BELVOIR   SUNNY     85  67  55 E6        30.17R
QUANTICO       MOSUNNY   85  71  63 E5        30.17R
FREDERICKSBRG* SUNNY     85  70  61 E7        30.16R
STAFFORD*      SUNNY     85  68  56 E7        30.21R
WARRENTON      SUNNY     85  66  53 E5        30.18R
CULPEPER*      SUNNY     84  71  65 CALM      30.19R
MANASSAS*      SUNNY     84  70  61 VRB6      30.18R
LEESBURG*      SUNNY     82  72  69 NE3       30.21R
WINCHESTER     SUNNY     81  64  57 NE3       30.21R
FRONT ROYAL*   FAIR      79  70  73 CALM      30.19S
LURAY*         FAIR      79  70  73 N6        30.21R
$$

VAZ048-049-060>072-079>083-271500-
CENTRAL AND SOUTH CENTRAL VIRGINIA

CITY           SKY/WX    TMP DP  RH WIND       PRES   REMARKS
RICHMOND       MOSUNNY   86  70  58 E13       30.15R
CHESTERFIELD*  FAIR      88  64  45 E9        30.16R
PETERSBURG*    SUNNY     90  73  56 E9        30.14S HX  98
HANOVER        SUNNY     85  71  63 VRB5      30.17R
TAPPAHANNOCK*  SUNNY     86  68  54 E8        30.17R
QUINTON*       FAIR      85  74  68 E6        30.15R
CHARLOTTSVILLE MOSUNNY   85  69  58 NE8       30.19R
GORDONSVILLE*  NOT AVBL
ORANGE*          N/A     82  72  69 CALM      30.20R
LOUISA*        MOSUNNY   88  75  66 E7        30.17R HX  97
BUMPASS*       FAIR      84  74  71 E5        30.17R
FARMVILLE*     SUNNY     84  76  77 N3        30.15R
CREWE*         FAIR      85  75  70 E3        30.15R
FORT PICKETT*  NOT AVBL
CHASE CITY*    FAIR      85  76  73 NE7       30.15R
CLARKSVILLE*   FAIR      84  75  74 NE3       30.14R
SOUTH HILL*    SUNNY     84  76  78 E3        30.19S
LAWRENCEVILLE* FAIR      86  76  72 E5        30.13S HX  96
EMPORIA*       SUNNY     84  75  74 NE7       30.14S
$$

VAZ088>098-271500-
SOUTHEAST VIRGINIA

CITY           SKY/WX    TMP DP  RH WIND       PRES   REMARKS
NORFOLK        SUNNY     84  73  69 NE9       30.13R
VIRGINIA BEACH MOSUNNY   91  72  53 VRB7      30.12R HX  98
NORFOLK NAVAL  MOSUNNY   86  72  62 NE9       30.14R
WEST POINT*    SUNNY     85  68  55 NE9       30.16S
SALUDA*        FAIR      85  73  68 NE9       30.15R
NEWPORT NEWS   SUNNY     87  72  60 NE12      30.14R
LANGLEY AFB    SUNNY     86  73  65 NE9       30.13R
FORT EUSTIS    SUNNY     90  71  53 NE9       30.11R HX  96
WILLIAMSBURG*  SUNNY     90  73  58 NE3       30.15R HX  98
HR EXEC AP*    FAIR      90  75  62 NE7       30.14R HX 100
FRANKLIN*      MOSUNNY   86  75  69 NE7       30.13S HX  95
US460-WAKEFLD  SUNNY     87  74  64 VRB6      30.13R HX  95
$$

VAZ020-022-025-037-045-271500-
WEST CENTRAL AND SOUTHWEST VIRGINIA

CITY           SKY/WX    TMP DP  RH WIND       PRES   REMARKS
STAUNTON*      CLOUDY    77  69  76 CALM      30.24S
WAYNESBORO*    PTSUNNY   78  71  80 N3        30.24R
HOT SPRINGS VA MOSUNNY   71  64  77 E8        30.35R
LYNCHBURG      SUNNY     82  70  66 NE10      30.19R
DANVILLE       MOSUNNY   82  74  76 N8        30.15S
SOUTH BOSTON*  PTSUNNY   84  77  80 NE5       30.15R
MARTINSVILLE   SUNNY     82  72  72 NE5       30.21R
ROANOKE        SUNNY     82  71  69 VRB7      30.22R
BLACKSBURG     SUNNY     79  71  76 NE8       30.28S
DUBLIN*        PTSUNNY   73  73 100 E3        30.27R FOG
MARION*        SUNNY     77  69  77 E5        30.30R
HILLSVILLE*    SUNNY     75  71  88 CALM      30.27R
RICHLANDS*     FAIR      79  71  75 CALM      30.26R
WISE*          SUNNY     81  59  47 CALM      30.27R
ABINGDON*      SUNNY     79  70  72 E7        30.23R
$$

MDZ021>025-VAZ099-100-271500-
SOUTHERN MARYLAND AND THE DELMARVA PENINSULA

CITY           SKY/WX    TMP DP  RH WIND       PRES   REMARKS
PATUXENT RIVER MOSUNNY   83  66  56 E12       30.16R
BAY BRIDGE APT SUNNY     81  70  69 E6        30.18R
LEONARDTOWN    SUNNY     81  64  57 E8        30.18R
DOVER          SUNNY     80  71  73 NE9       30.17R
GEORGETOWN     NOT AVBL
EASTON         SUNNY     82  72  69 E8        30.21R
CAMBRIDGE      SUNNY     81  64  57 E8        30.16S
SALISBURY      SUNNY     83  65  54 NE13      30.16R
OCEAN CITY     SUNNY     83  68  60 NE10      30.15R
WALLOPS ISLAND SUNNY     84  60  44 NE16      30.16R
ACCOMACK*      SUNNY     85  68  57 E13       30.14S
$$

NCZ012>017-030>032-271500-
NORTH CENTRAL AND EASTERN NORTH CAROLINA

CITY           SKY/WX    TMP DP  RH WIND       PRES   REMARKS
ROANOKE RAPIDS FAIR      81  75  83 NE5       30.13R
RALEIGH        MOSUNNY   86  74  67 CALM      30.13R
ELIZABETH CITY SUNNY     85  75  72 N5        30.12S
AHOSKIE*       SUNNY     81  75  84 CALM      30.12S
EDENTON*       SUNNY     86  73  65 CALM      30.13R
CURRITUCK*       N/A     85  76  73 NE6       30.12S HX  95
KILL DEVIL HLS SUNNY     87  79  76 W3        30.11R HX 101
MANTEO         SUNNY     83  75  77 N7        30.12R
CAPE HATTERAS  SUNNY     85  75  72 VRB6      30.11S
TARBORO*       PTSUNNY   78  76  91 CALM      30.14R
GOLDSBORO      SUNNY     85  75  70 VRB3      30.11R
WASHINGTON     MOSUNNY   82  73  72 CALM      30.13R
GREENVILLE     MOSUNNY   82  73  74 CALM      30.14R
NEW BERN       MOSUNNY   84  72  67 CALM      30.13S
WILMINGTON     SUNNY     84  73  69 VRB3      30.11R
$$

VAZ048-271500-
ELSEWHERE

CITY           SKY/WX    TMP DP  RH WIND       PRES   REMARKS
HARRISBURG PA  PTSUNNY   82  69  64 VRB3      30.21R
BALTIMORE      MOSUNNY   83  65  54 E9        30.18R
ANNAPOLIS      SUNNY     83  68  60 NE6       30.18R
ANDREWS AFB    SUNNY     83  69  61 E8        30.17R
PHILADELPHIA   MOSUNNY   83  61  47 NE9       30.19R
HENDERSON NC   SUNNY     82  74  77 NE5       30.14R
GREENSBORO     MOSUNNY   84  73  69 NE8       30.16R
ROCKY MOUNT    MOSUNNY   85  76  74 VRB5      30.12R
$$

VAZ100-271500-
MARINE

STATION/POSITION TIME  TEMP    WIND        PRES    WAVE   SWELL
                       AIR SEA DIR/SP/G            HT/PER HT/PER
                 (UTC) (F)     (DEG/KT/KT) (MB)    (FT/S) (FT/S)
BRANDYWINE LGT   1300   77      60/ 15/ 16   N/A
CAPE MAY NJ      1300   81 76   60/  8/ 13 1020.5R
LEWES DE         1300   77 76   70/ 11/ 13 1020.9R
OCEAN-CITY-INLET 1300   79 71   70/  6/ 12 1021.0R
WACHAPREAGUE VA  1300   81 83   40/ 12/ 15 1020.3R
THOMAS POINT MD  1400   80 82   50/  6/  7 1023.3R
GOOSES REEF MD   1400   82 82   80/ 12/ 14 1022.0R   1/ 2
COVE POINT MD    1300   80     100/ 14/ 17 1021.6R
SOLOMONS ISLAND  1300   81 84   70/ 12/ 14   N/A
PINEY POINT MD   1300          110/ 10/ 11   N/A
POTOMAC MD       1400   82 83   80/ 14/ 16 1020.3R   2/ 3
CAMBRIDGE MD     1300   80 84   60/ 11/ 13 1020.4R
LEWISETTA VA     1300   82 83   90/ 11/ 13 1020.6R
RAPPAHANNOCK LGT 1300           40/ 10/ 11 1021.0R
STINGRAY PT      1400   83 83   10/ 10/ 12 1021.2R   2/ 3
YORK RVR RNG VA  1300   83      70/ 12/ 13 1019.8R
YORKTOWN VA      1300   83 83   60/ 11/ 13 1019.8R
JAMESTOWN VA     1400   86 86   80/  6/ 12   N/A     0
DOMINION TERM VA 1300   85      70/  9/ 11 1020.0R
KIPTOPEKE VA     1300      81   60/  8/ 12   N/A
CHES BAY BRIDGE  1300   81 80   30/  9/ 11 1019.7R
CAPE HENRY VA    1300   80      30/ 10/ 12   N/A
WILLOUBY STN VA  1300   82      40/  8/ 10   N/A
CAPE HENRY BUOY  1312      79                N/A     2/ 9
1ST LANDING BUOY 1400   81 80   60/ 12/ 14 1020.0R   1/ 4
CAPE CHARLES BUO 1326      78                N/A     2/10
OFFSHORE WE BUOY 1321      79                N/A     2/ 8
64NM E OF VA BCH 1350   80 80  350/  8/  8 1019.4R   3/ 9   2/ 9
DUCK PIER NC     1300   81 63  290/  6/  7 1019.0R
44100 DUCK FRF   1335      79                N/A     2/10
44056 DUCK FRF   1311      78                N/A     2/11
OREGON INLET NC  1300   81 82  270/  6/  8 1019.5S
HATTERAS NC      1300   82 83  330/  6/  8 1019.2F
DIAMOND SHLS NC  1350   82 85  350/  6/  8 1019.9R   3/10   3/10
CAPE LOOKOUT NC  1400   83      10/  5/  7 1019.5R
$$




USA.gov is the U.S. government's official web portal to all federal, state and local government web resources and services.